Regional Weather Roundup
Issued by NWS

Home | Current Version | Previous Version | Text Only | Print | Product List | Glossary Off
Versions: 1 2 3 4 5 6 7 8 9 10 11 12 13 14 15 16 17 18 19 20 21 22 23 24 25 26 27 28 29 30 31 32 33 34 35 36 37 38 39 40 41 42 43 44 45 46 47 48 49 50

000
ASUS43 KMKX 242120
RWRWI

WISCONSIN REGIONAL WEATHER ROUNDUP
NATIONAL WEATHER SERVICE MILWAUKEE/SULLIVAN WI
400 PM CDT WED MAY 24 2017

NOTE: "FAIR" INDICATES FEW OR NO CLOUDS BELOW 12,000 FEET WITH NO
SIGNIFICANT WEATHER AND/OR OBSTRUCTIONS TO VISIBILITY.

WIZ001-002-006>008-014>016-023>028-242200-
NORTHWEST WISCONSIN

CITY           SKY/WX    TMP DP  RH WIND       PRES   REMARKS
SUPERIOR ARPT  NOT AVBL
ASHLAND        CLOUDY    50  42  74 N10       29.77F
HAYWARD        CLOUDY    61  44  53 N12       29.73S
SIREN          CLOUDY    59  41  49 CALM      29.73S
CUMBERLAND     CLOUDY    57  41  54 NE7       29.71F
RICE LAKE      CLOUDY    59  45  60 N7        29.72F
CHETEK         CLOUDY    60  46  59 E5        29.70F
LADYSMITH      CLOUDY    60  47  62 NE10      29.72F
EAU CLAIRE     PTSUNNY   64  46  52 NE7       29.67F
MENOMONIE      CLOUDY    61  46  58 N7        29.70F
NEW RICHMOND   CLOUDY    58  43  57 NE6       29.72F
OSCEOLA        CLOUDY    59  43  55 N3        29.75F
$$

WIZ003>005-009-010-017-018-242200-
NORTH CENTRAL WISCONSIN

CITY           SKY/WX    TMP DP  RH WIND       PRES   REMARKS
MANITOWISH WTR DRIZZLE   51  49  93 NE6       29.74F
ARBOR VITAE    CLOUDY    53  47  80 NE5       29.73S
WOODRUFF       CLOUDY    53  47  80 NE5       29.73S
RHINELANDER    CLOUDY    54  47  77 NE9       29.73S
EAGLE RIVER    CLOUDY    51  46  81 NE8       29.74R
LAND O LAKES   CLOUDY    51  47  85 NE8       29.76F
PHILLIPS       CLOUDY    54  46  75 NE7       29.72F
TOMAHAWK       CLOUDY    53  46  77 N5        29.72S
MEDFORD        CLOUDY    52  47  81 NE8       29.70S
MERRILL        CLOUDY    55  49  79 E9        29.71S
$$

WIZ029-030-035-036-043>047-242200-
CENTRAL WISCONSIN

CITY           SKY/WX    TMP DP  RH WIND       PRES   REMARKS
WAUSAU         CLOUDY    54  49  83 NE9       29.68F
MOSINEE        CLOUDY    54  52  94 NE7       29.70F
MARSHFIELD     CLOUDY    53  49  86 NE7       29.68F FOG
STEVENS POINT  CLOUDY    51  50  97 NE9       29.69F
WAUPACA        CLOUDY    55  51  85 N7        29.69S
WAUTOMA        CLOUDY    54  50  86 N10       29.68S
WISC RAPIDS    CLOUDY    56  49  77 NE9       29.69F
CAMP DOUGLAS   CLOUDY    57  52  82 NE7       29.67F
$$

WIZ011>013-019>022-031-037>040-048>050-242200-
NORTHEAST WISCONSIN

CITY           SKY/WX    TMP DP  RH WIND       PRES   REMARKS
ANTIGO         CLOUDY    54  49  84 NE10      29.71S
SHAWANO        CLOUDY    55  50  85 NE9       29.70R
OCONTO         CLOUDY    55  49  82 NE10      29.68F
STURGEON BAY   LGT RAIN  53  51  93 N8        29.68F
GREEN BAY      CLOUDY    54  52  93 NE13      29.67F
MANITOWOC      CLOUDY    55  50  83 N10       29.65S
APPLETON       CLOUDY    52  54 100 N13       29.66S
CLINTONVILLE   CLOUDY    54  50  87 NE7       29.69S
OSHKOSH        CLOUDY    55  50  83 NE13      29.65F
$$

WIZ032>034-041-042-053>061-242200-
SOUTHWEST WISCONSIN

CITY           SKY/WX    TMP DP  RH WIND       PRES   REMARKS
LA CROSSE      CLOUDY    60  50  69 NE9       29.67F
SPARTA         CLOUDY    55  50  83 N7        29.69S
VIROQUA        CLOUDY    55  50  85 MISG      29.67F
BOSCOBEL       CLOUDY    59  49  69 N7        29.66S
PRAIRIE DU CHI CLOUDY    57  47  71 N9        29.66S
PLATTEVILLE    CLOUDY    57  54  89 N12       29.65S
$$

WIZ056-057-062-063-064-067-068-242200-
SOUTH CENTRAL WISCONSIN

CITY           SKY/WX    TMP DP  RH WIND       PRES   REMARKS
REEDSBURG      CLOUDY    54  52  92 N5        29.66F
BARABOO/DELLS  CLOUDY    55  50  83 NE7       29.65F
LONE ROCK      CLOUDY    58  50  75 N9        29.65F
MINERAL POINT  CLOUDY    55  52  88 N10       29.65S
MADISON        CLOUDY    54  51  90 N12       29.64S
MIDDLETON      CLOUDY    55  54  97 N7        29.65S
WATERTOWN      CLOUDY    59  54  84 N12       29.61S
MONROE         CLOUDY    54  52  94 N10       29.62S
JANESVILLE     CLOUDY    61  54  77 N12         N/A
$$

WIZ051-052-058>065-066-070>072-242200-
SOUTHEAST WISCONSIN

CITY           SKY/WX    TMP DP  RH WIND       PRES   REMARKS
MILWAUKEE      PTSUNNY   58  52  80 N21G28    29.60S
WAUKESHA       CLOUDY    59  50  72 N16G22    29.61S
MILWAUKEE/TIMM PTSUNNY   61  48  63 N14G24    29.61S
RACINE         CLOUDY    54  49  83 N20G29    29.60S
KENOSHA        MOSUNNY   61  52  72 N21G30    29.58S
FOND DU LAC    CLOUDY    57  51  80 N17       29.64F
SHEBOYGAN      CLOUDY    57  54  89 N14       29.62F
WEST BEND      CLOUDY    57  52  82 N12       29.62S
JUNEAU         CLOUDY    57  53  85 N12G18    29.63F
$$

LSZ147-162-242200-
LAKE SUPERIOR

STATION/POSITION TIME  TEMP    WIND        PRES    WAVE
                       AIR SEA DIR/SP/G            HT/PER
                 (UTC) (F)     (DEG/KT/KT) (MB)    (FT/S)
$$

LMZ867-665-643>646-242200-
LAKE MICHIGAN

STATION/POSITION TIME  TEMP    WIND        PRES    WAVE
                       AIR SEA DIR/SP/G            HT/PER
                 (UTC) (F)     (DEG/KT/KT) (MB)    (FT/S)
$$

TC  - TEMPERATURE IN CELSIUS
VSB - VISIBILITY IN STATUTE MILES
WCI - WIND CHILL INDEX
HX  - HEAT INDEX




USA.gov is the U.S. government's official web portal to all federal, state and local government web resources and services.